Weather History for Beckley, WV

Change the Weather History Date:

Friday, October 21, 2011

  Actual Average Record
Temperature  
Mean Temperature 41 °F 52 °F  
Max Temperature 48 °F 62 °F 80 °F (1949)
Min Temperature 34 °F 42 °F 11 °F (1952)
Degree Days  
Heating Degree Days 24 13  
Month to date heating degree days 221 225  
Since 1 July heating degree days 298 359  
Cooling Degree Days 0 0  
Month to date cooling degree days 0 2  
Year to date cooling degree days 865 552  
Moisture  
Dew Point 34 °F    
Average Humidity 76    
Maximum Humidity 92    
Minimum Humidity 60    
Precipitation  
Precipitation 0.00 in 0.08 in 1.71 in (1944)
Month to date precipitation 1.89 1.69  
Year to date precipitation 33.51 34.36  
Snow  
Snow 0.00 in - - ()
Month to date snowfall 0.0  
Since 1 September snowfall 0.0  
Snow Depth 0.00 in    
Sea Level Pressure  
Sea Level Pressure 30.08 in    
Wind  
Wind Speed 7 mph (West)    
Max Wind Speed 17 mph    
Max Gust Speed 22 mph    
Visibility 10 miles    
Events      
T = Trace of Precipitation, MM = Missing Value Source: NWS Daily Summary

Daily Weather History Graph

Daily Weather History Graph

Search for Another Location

Airport:

Trip Planner

Search our weather history database for the weather conditions in past years. The results will help you decide how hot, cold, wet, or windy it might be!

Date:

Astronomy

Oct. 21, 2011 Rise Set
Actual Time 7:38 AM EDT 6:39 PM EDT
Civil Twilight 7:11 AM EDT 7:05 PM EDT
Nautical Twilight 6:41 AM EDT 7:36 PM EDT
Astronomical Twilight 6:10 AM EDT 8:06 PM EDT
Moon 1:33 AM EDT (10/21) 3:17 PM EDT (10/21)
Length of Visible Light 11h 54m
Length of Day
11h 00m
Waning Crescent, 34% of the Moon is Illuminated
Oct 21
Waning Crescent
Oct 26
New
Nov 2
First Quarter
Nov 10
Full
Nov 18
Last Quarter

Hourly Weather History & Observations

Time (EDT) Temp. Windchill Dew Point Humidity Pressure Visibility Wind Dir Wind Speed Gust Speed Precip Events Conditions
12:51 AM 41.0 °F 33.5 °F 35.6 °F 81% 29.94 in 10.0 mi WNW 13.8 mph 19.6 mph N/A   Overcast
1:51 AM 41.0 °F 33.1 °F 35.1 °F 79% 29.99 in 10.0 mi West 15.0 mph 20.7 mph N/A   Overcast
2:51 AM 41.0 °F 33.9 °F 34.0 °F 76% 30.00 in 10.0 mi West 12.7 mph 18.4 mph N/A   Overcast
3:51 AM 39.9 °F 33.4 °F 34.0 °F 79% 30.00 in 10.0 mi West 10.4 mph - N/A   Overcast
4:51 AM 39.9 °F 33.4 °F 34.0 °F 79% 30.01 in 10.0 mi West 10.4 mph - N/A   Overcast
5:51 AM 39.9 °F 35.1 °F 33.1 °F 77% 30.04 in 10.0 mi West 6.9 mph - N/A   Overcast
6:51 AM 39.2 °F 33.0 °F 32.0 °F 75% 30.01 in 10.0 mi West 9.2 mph - N/A   Overcast
7:27 AM 39.2 °F 33.6 °F 32.0 °F 75% 30.01 in 10.0 mi West 8.1 mph - N/A   Overcast
7:51 AM 39.2 °F 32.5 °F 32.0 °F 75% 30.02 in 10.0 mi WSW 10.4 mph - N/A   Overcast
8:51 AM 41.0 °F 35.2 °F 33.1 °F 73% 30.09 in 10.0 mi West 9.2 mph 17.3 mph N/A   Overcast
9:51 AM 42.1 °F 37.1 °F 33.1 °F 70% 30.11 in 10.0 mi WSW 8.1 mph - N/A   Overcast
10:35 AM 42.8 °F 36.6 °F 32.0 °F 66% 30.09 in 10.0 mi West 11.5 mph - N/A   Overcast
10:51 AM 43.0 °F 37.2 °F 32.0 °F 65% 30.12 in 10.0 mi West 10.4 mph - N/A   Overcast
11:51 AM 44.1 °F 38.1 °F 33.1 °F 65% 30.12 in 10.0 mi West 11.5 mph - N/A   Overcast
12:51 PM 45.0 °F 40.1 °F 33.1 °F 63% 30.11 in 10.0 mi West 9.2 mph - N/A   Overcast
1:51 PM 46.0 °F 41.9 °F 34.0 °F 63% 30.10 in 10.0 mi West 8.1 mph - N/A   Overcast
2:51 PM 46.0 °F 41.9 °F 34.0 °F 63% 30.09 in 10.0 mi West 8.1 mph - N/A   Overcast
3:51 PM 46.9 °F - 35.1 °F 63% 30.09 in 10.0 mi NNW 5.8 mph - N/A   Overcast
4:51 PM 46.9 °F - 35.1 °F 63% 30.11 in 10.0 mi NNW 5.8 mph - N/A   Overcast
5:51 PM 46.9 °F - 35.1 °F 63% 30.11 in 10.0 mi North 6.9 mph - N/A   Partly Cloudy
6:51 PM 44.1 °F - 35.1 °F 71% 30.13 in 10.0 mi Calm Calm - N/A   Clear
7:51 PM 42.1 °F - 34.0 °F 73% 30.15 in 10.0 mi Calm Calm - N/A   Partly Cloudy
8:51 PM 39.0 °F - 35.1 °F 86% 30.16 in 10.0 mi Calm Calm - N/A   Clear
9:51 PM 37.0 °F - 35.1 °F 93% 30.17 in 10.0 mi Calm Calm - N/A   Clear
10:51 PM 36.0 °F - 33.1 °F 89% 30.19 in 10.0 mi Calm Calm - N/A   Clear
11:51 PM 35.1 °F - 33.1 °F 92% 30.18 in 10.0 mi Calm Calm - N/A   Clear